Terug naar catalogus

STARLINK-30821

ActiefCommunicatieVLEO
NORAD 58181·PAYLOAD·🇺🇸 United States

Gelanceerd Oct 30, 2023 vanaf Cape Canaveral Space Force Station

Loading…

Volgende Passages (komende 24 uur)

TLE

VersSource: CelesTrak SupGP

Epoch: Sep 14, 2026, 21:05 UTC

1 58181C 23167G   26257.87895833 -.00035220  00000+0 -12756-2 0  2578
2 58181  43.0020 154.8268 0001230 264.1906 349.6474 15.27599232    15

Volg STARLINK-30821 in realtime met AllMySat

Download on the App Store